Weather in Satun

Thailand     6°36′51″N   100°03′58″E
temp.,
°C
wind,
m/s
gust,
m/s
humid.,
%
clouds,
%
prec.,
mm/h
press.,
hPa
HPBL,
m
19 may, wed
wed1901:00+29w3473100 1.9 1008753
04:00+28w3576100 5.3 1007422
07:00+27nne3483100 6.7 1008200
10:00+28n3581100 0.3 1010320
13:00+29nnw6774100 1.9 1008643
16:00+27nw7784100 0.7 1008459
19:00+27n3481100 0.8 1008363
22:00+28nw2379100 0.0 1010409
20 may, thu
thu2001:00+29wnw3474100 0.0 1009721
04:00+29wnw1270100 1.3 1008777
07:00+29sse1271100 1.3 1009549
10:00+28e117660 0.0 1010474
13:00+30wsw336898 0.0 1008720
16:00+30w3369100 0.0 1007773
19:00+29w237294 0.0 1009754
22:00+29w347530 0.1 1010728
21 may, fri
fri2101:00+29w457596 0.5 1009888
04:00+29w5675100 0.9 1008869
07:00+29w567567 1.7 1009919
10:00+29w457692 4.4 1010709
13:00+29w5677100 10.7 1009693
16:00+28w6881100 6.4 1007706
19:00+29wnw7877100 10.3 1009914
22:00+30wnw8873100 0.1 10101196
22 may, sat
sat2201:00+30w7971100 0.3 10091329
04:00+30w7972100 1.6 10071106
07:00+29w677497 3.9 1009916
10:00+30w6870100 1.8 10101190
13:00+30wnw8972100 2.6 10081278
16:00+30wnw7874100 1.0 10061067
19:00+29wnw4574100 1.4 1008862
22:00+30w4572100 0.1 1009925
23 may, sun
sun2301:00+29w5671100 0.1 1008972
04:00+29wsw4569100 0.0 1006923
07:00+29wsw3468100 0.0 1008990
10:00+30wsw336526 0.0 1009979
13:00+30wsw2365100 0.0 1008813
16:00+30wsw236470 0.0 1006772
19:00+29ssw1164100 0.0 1007634
22:00+29wnw0166100 0.0 1008522